Location: Les Chemineaux
(47.3024°N, 1.5104°E)
Time: 16:25:01
(UTC+00:00)

Cosmos 2184 Rocket - Pass Details

Date: 19 May 2025
Orbit: 959 x 1001 km, 82.9° (Epoch: 12 June)

Event Time Altitude Azimuth Distance (km) Brightness Sun altitude
Rises 19:52:50 0° 352° (N) 3,675 7.7 -4.2°
Reaches altitude 10° 19:55:22 10° 356° (N) 2,729 7.0 -4.6°
Maximum altitude 20:01:36 68° 79° (E) 1,055 4.1 -5.4°
Drops below altitude 10° 20:07:52 10° 162° (SSE) 2,740 5.9 -6.2°
Enters shadow 20:10:18 - 165° (SSE) 3,653 6.5 -6.6°
